owner,sensor,date,latitude,longitude,vertical_datum,mass_concentration_of_oxygen_in_sea_water,qcFlag 
SCCF RECON,ioos:station:SCCF:11:1,2013-09-01T00:00:00Z,26.4679,-82.0631,1.76,6.67,1111122 
SCCF RECON,ioos:station:SCCF:11:1,2013-09-01T01:00:00Z,26.4679,-82.0631,1.87,6.55,1111122 
SCCF RECON,ioos:station:SCCF:11:1,2013-09-01T02:00:00Z,26.4679,-82.0631,1.96,7.31,1111122 
SCCF RECON,ioos:station:SCCF:11:1,2013-09-01T03:00:00Z,26.4679,-82.0631,2.02,6.2,1111122 
SCCF RECON,ioos:station:SCCF:11:1,2013-09-01T04:00:00Z,26.4679,-82.0631,2.06,5.67,1111122 
SCCF RECON,ioos:station:SCCF:11:1,2013-09-01T05:00:00Z,26.4679,-82.0631,2.08,5.21,1111122 
SCCF RECON,ioos:station:SCCF:11:1,2013-09-01T06:00:00Z,26.4679,-82.0631,2.04,4.49,1111122 
SCCF RECON,ioos:station:SCCF:11:1,2013-09-01T07:00:00Z,26.4679,-82.0631,1.97,4.82,1111122 
SCCF RECON,ioos:station:SCCF:11:1,2013-09-01T08:00:00Z,26.4679,-82.0631,1.92,4.64,1111122 
SCCF RECON,ioos:station:SCCF:11:1,2013-09-01T09:00:00Z,26.4679,-82.0631,1.89,4.64,1111122 
SCCF RECON,ioos:station:SCCF:11:1,2013-09-01T10:00:00Z,26.4679,-82.0631,1.9,5.38,1111122 
SCCF RECON,ioos:station:SCCF:11:1,2013-09-01T11:00:00Z,26.4679,-82.0631,1.96,5.31,1111122 
SCCF RECON,ioos:station:SCCF:11:1,2013-09-01T12:00:00Z,26.4679,-82.0631,2.04,5.17,1111122 
SCCF RECON,ioos:station:SCCF:11:1,2013-09-01T13:00:00Z,26.4679,-82.0631,2.12,5.0,1111122 
SCCF RECON,ioos:station:SCCF:11:1,2013-09-01T14:00:00Z,26.4679,-82.0631,2.2,4.74,1111122 
SCCF RECON,ioos:station:SCCF:11:1,2013-09-01T15:00:00Z,26.4679,-82.0631,2.22,5.28,1111122 
SCCF RECON,ioos:station:SCCF:11:1,2013-09-01T16:00:00Z,26.4679,-82.0631,2.23,4.83,1111122 
SCCF RECON,ioos:station:SCCF:11:1,2013-09-01T17:00:00Z,26.4679,-82.0631,2.15,5.09,1111122 
SCCF RECON,ioos:station:SCCF:11:1,2013-09-01T18:00:00Z,26.4679,-82.0631,2.05,6.23,1111122 
SCCF RECON,ioos:station:SCCF:11:1,2013-09-01T19:00:00Z,26.4679,-82.0631,1.92,7.32,1111122 
SCCF RECON,ioos:station:SCCF:11:1,2013-09-01T20:00:00Z,26.4679,-82.0631,1.77,7.76,1111122 
SCCF RECON,ioos:station:SCCF:11:1,2013-09-01T21:00:00Z,26.4679,-82.0631,1.65,8.26,1111122 
SCCF RECON,ioos:station:SCCF:11:1,2013-09-01T22:00:00Z,26.4679,-82.0631,1.6,7.12,1111122 
SCCF RECON,ioos:station:SCCF:11:1,2013-09-01T23:00:00Z,26.4679,-82.0631,1.58,7.57,1111122 
SCCF RECON,ioos:station:SCCF:11:1,2013-09-02T00:00:00Z,26.4679,-82.0631,1.63,6.19,1111122 
SCCF RECON,ioos:station:SCCF:11:1,2013-09-02T01:00:00Z,26.4679,-82.0631,1.77,6.93,1111122 
SCCF RECON,ioos:station:SCCF:11:1,2013-09-02T02:00:00Z,26.4679,-82.0631,1.92,5.82,1111122 
SCCF RECON,ioos:station:SCCF:11:1,2013-09-02T03:00:00Z,26.4679,-82.0631,2.02,5.96,1111122 
SCCF RECON,ioos:station:SCCF:11:1,2013-09-02T04:00:00Z,26.4679,-82.0631,2.09,5.02,1111122 
SCCF RECON,ioos:station:SCCF:11:1,2013-09-02T05:00:00Z,26.4679,-82.0631,2.12,5.01,1111122 
SCCF RECON,ioos:station:SCCF:11:1,2013-09-02T06:00:00Z,26.4679,-82.0631,2.11,5.12,1111122 
SCCF RECON,ioos:station:SCCF:11:1,2013-09-02T07:00:00Z,26.4679,-82.0631,2.03,5.28,1111122 
SCCF RECON,ioos:station:SCCF:11:1,2013-09-02T08:00:00Z,26.4679,-82.0631,1.95,5.28,1111122 
SCCF RECON,ioos:station:SCCF:11:1,2013-09-02T09:00:00Z,26.4679,-82.0631,1.87,5.28,1111122 
SCCF RECON,ioos:station:SCCF:11:1,2013-09-02T10:00:00Z,26.4679,-82.0631,1.81,4.94,1111122 
SCCF RECON,ioos:station:SCCF:11:1,2013-09-02T11:00:00Z,26.4679,-82.0631,1.85,4.82,1111122 
SCCF RECON,ioos:station:SCCF:11:1,2013-09-02T12:00:00Z,26.4679,-82.0631,1.98,4.34,1111122 
SCCF RECON,ioos:station:SCCF:11:1,2013-09-02T13:00:00Z,26.4679,-82.0631,2.11,5.08,1111122 
SCCF RECON,ioos:station:SCCF:11:1,2013-09-02T14:00:00Z,26.4679,-82.0631,2.19,4.63,1111122 
SCCF RECON,ioos:station:SCCF:11:1,2013-09-02T15:00:00Z,26.4679,-82.0631,2.23,4.62,1111122 
SCCF RECON,ioos:station:SCCF:11:1,2013-09-02T16:00:00Z,26.4679,-82.0631,2.26,4.97,1111122 
SCCF RECON,ioos:station:SCCF:11:1,2013-09-02T17:00:00Z,26.4679,-82.0631,2.188,4.87,1111122 
SCCF RECON,ioos:station:SCCF:11:1,2013-09-02T18:00:00Z,26.4679,-82.0631,2.08,5.91,1111122 
SCCF RECON,ioos:station:SCCF:11:1,2013-09-02T19:00:00Z,26.4679,-82.0631,1.95,5.76,1111122 
SCCF RECON,ioos:station:SCCF:11:1,2013-09-02T20:00:00Z,26.4679,-82.0631,1.85,5.74,1111122 
SCCF RECON,ioos:station:SCCF:11:1,2013-09-02T21:00:00Z,26.4679,-82.0631,1.714,5.59,1111122 
SCCF RECON,ioos:station:SCCF:11:1,2013-09-02T22:00:00Z,26.4679,-82.0631,1.56,5.42,1111122 
SCCF RECON,ioos:station:SCCF:11:1,2013-09-02T23:00:00Z,26.4679,-82.0631,1.5,5.63,1111122 
SCCF RECON,ioos:station:SCCF:11:1,2013-09-03T00:00:00Z,26.4679,-82.0631,1.57,5.56,1111122 
SCCF RECON,ioos:station:SCCF:11:1,2013-09-03T01:00:00Z,26.4679,-82.0631,1.71,5.35,1111122 
SCCF RECON,ioos:station:SCCF:11:1,2013-09-03T02:00:00Z,26.4679,-82.0631,1.85,5.38,1111122 
SCCF RECON,ioos:station:SCCF:11:1,2013-09-03T03:00:00Z,26.4679,-82.0631,1.97,5.45,1111122 
SCCF RECON,ioos:station:SCCF:11:1,2013-09-03T04:00:00Z,26.4679,-82.0631,2.06,4.44,1111122 
SCCF RECON,ioos:station:SCCF:11:1,2013-09-03T05:00:00Z,26.4679,-82.0631,2.13,4.24,1111122 
SCCF RECON,ioos:station:SCCF:11:1,2013-09-03T06:00:00Z,26.4679,-82.0631,2.11,4.61,1111122 
SCCF RECON,ioos:station:SCCF:11:1,2013-09-03T07:00:00Z,26.4679,-82.0631,2.03,4.63,1111122 
SCCF RECON,ioos:station:SCCF:11:1,2013-09-03T08:00:00Z,26.4679,-82.0631,1.95,4.83,1111122 
SCCF RECON,ioos:station:SCCF:11:1,2013-09-03T09:00:00Z,26.4679,-82.0631,1.87,4.57,1111122 
SCCF RECON,ioos:station:SCCF:11:1,2013-09-03T10:00:00Z,26.4679,-82.0631,1.78,4.49,1111122 
SCCF RECON,ioos:station:SCCF:11:1,2013-09-03T11:00:00Z,26.4679,-82.0631,1.75,3.92,1111122 
SCCF RECON,ioos:station:SCCF:11:1,2013-09-03T12:00:00Z,26.4679,-82.0631,1.84,4.25,1111122 
SCCF RECON,ioos:station:SCCF:11:1,2013-09-03T13:00:00Z,26.4679,-82.0631,1.98,4.57,1111122 
SCCF RECON,ioos:station:SCCF:11:1,2013-09-03T14:00:00Z,26.4679,-82.0631,2.11,4.1,1111122 
SCCF RECON,ioos:station:SCCF:11:1,2013-09-03T15:00:00Z,26.4679,-82.0631,2.208,4.72,1111122 
SCCF RECON,ioos:station:SCCF:11:1,2013-09-03T16:00:00Z,26.4679,-82.0631,2.27,4.57,1111122 
SCCF RECON,ioos:station:SCCF:11:1,2013-09-03T17:00:00Z,26.4679,-82.0631,2.26,4.42,1111122 
SCCF RECON,ioos:station:SCCF:11:1,2013-09-03T18:00:00Z,26.4679,-82.0631,2.18,4.68,1111122 
SCCF RECON,ioos:station:SCCF:11:1,2013-09-03T19:00:00Z,26.4679,-82.0631,2.05,5.42,1111122 
SCCF RECON,ioos:station:SCCF:11:1,2013-09-03T20:00:00Z,26.4679,-82.0631,1.9,5.71,1111122 
SCCF RECON,ioos:station:SCCF:11:1,2013-09-03T21:00:00Z,26.4679,-82.0631,1.769,6.21,1111122 
SCCF RECON,ioos:station:SCCF:11:1,2013-09-03T22:00:00Z,26.4679,-82.0631,1.63,6.05,1111122 
SCCF RECON,ioos:station:SCCF:11:1,2013-09-03T23:00:00Z,26.4679,-82.0631,1.53,5.5,1111122 
SCCF RECON,ioos:station:SCCF:11:1,2013-09-04T00:00:00Z,26.4679,-82.0631,1.51,6.27,1111122 
SCCF RECON,ioos:station:SCCF:11:1,2013-09-04T01:00:00Z,26.4679,-82.0631,1.62,5.54,1111122 
SCCF RECON,ioos:station:SCCF:11:1,2013-09-04T02:00:00Z,26.4679,-82.0631,1.78,4.82,1111122 
SCCF RECON,ioos:station:SCCF:11:1,2013-09-04T03:00:00Z,26.4679,-82.0631,1.91,4.98,1111122 
SCCF RECON,ioos:station:SCCF:11:1,2013-09-04T04:00:00Z,26.4679,-82.0631,2.01,4.68,1111122 
SCCF RECON,ioos:station:SCCF:11:1,2013-09-04T05:00:00Z,26.4679,-82.0631,2.09,4.5,1111122 
SCCF RECON,ioos:station:SCCF:11:1,2013-09-04T06:00:00Z,26.4679,-82.0631,2.14,3.81,1111122 
SCCF RECON,ioos:station:SCCF:11:1,2013-09-04T07:00:00Z,26.4679,-82.0631,2.06,4.51,1111122 
SCCF RECON,ioos:station:SCCF:11:1,2013-09-04T08:00:00Z,26.4679,-82.0631,1.92,4.55,1111122 
SCCF RECON,ioos:station:SCCF:11:1,2013-09-04T09:00:00Z,26.4679,-82.0631,1.84,4.31,1111122 
SCCF RECON,ioos:station:SCCF:11:1,2013-09-04T10:00:00Z,26.4679,-82.0631,1.77,4.15,1111122 
SCCF RECON,ioos:station:SCCF:11:1,2013-09-04T11:00:00Z,26.4679,-82.0631,1.71,4.13,1111122 
SCCF RECON,ioos:station:SCCF:11:1,2013-09-04T12:00:00Z,26.4679,-82.0631,1.72,3.91,1111122 
SCCF RECON,ioos:station:SCCF:11:1,2013-09-04T13:00:00Z,26.4679,-82.0631,1.825,3.99,1111122 
SCCF RECON,ioos:station:SCCF:11:1,2013-09-04T14:00:00Z,26.4679,-82.0631,1.97,4.77,1111122 
SCCF RECON,ioos:station:SCCF:11:1,2013-09-04T15:00:00Z,26.4679,-82.0631,2.12,4.36,1111122 
SCCF RECON,ioos:station:SCCF:11:1,2013-09-04T16:00:00Z,26.4679,-82.0631,2.19,4.21,1111122 
SCCF RECON,ioos:station:SCCF:11:1,2013-09-04T17:00:00Z,26.4679,-82.0631,2.24,3.83,1111122 
SCCF RECON,ioos:station:SCCF:11:1,2013-09-04T18:00:00Z,26.4679,-82.0631,2.24,3.71,1111122 
SCCF RECON,ioos:station:SCCF:11:1,2013-09-04T19:00:00Z,26.4679,-82.0631,2.19,4.35,1111122 
SCCF RECON,ioos:station:SCCF:11:1,2013-09-04T20:00:00Z,26.4679,-82.0631,2.02,5.12,1111122 
SCCF RECON,ioos:station:SCCF:11:1,2013-09-04T21:00:00Z,26.4679,-82.0631,1.893,5.21,1111122 
SCCF RECON,ioos:station:SCCF:11:1,2013-09-04T22:00:00Z,26.4679,-82.0631,1.73,5.09,1111122 
SCCF RECON,ioos:station:SCCF:11:1,2013-09-04T23:00:00Z,26.4679,-82.0631,1.61,4.83,1111122 
SCCF RECON,ioos:station:SCCF:11:1,2013-09-05T00:00:00Z,26.4679,-82.0631,1.54,4.92,1111122 
SCCF RECON,ioos:station:SCCF:11:1,2013-09-05T01:00:00Z,26.4679,-82.0631,1.565,5.01,1111122 
SCCF RECON,ioos:station:SCCF:11:1,2013-09-05T02:00:00Z,26.4679,-82.0631,1.687,4.39,1111122 
SCCF RECON,ioos:station:SCCF:11:1,2013-09-05T03:00:00Z,26.4679,-82.0631,1.84,5.12,1111122 
SCCF RECON,ioos:station:SCCF:11:1,2013-09-05T04:00:00Z,26.4679,-82.0631,1.98,4.79,1111122 
SCCF RECON,ioos:station:SCCF:11:1,2013-09-05T05:00:00Z,26.4679,-82.0631,2.06,4.83,1111122 
SCCF RECON,ioos:station:SCCF:11:1,2013-09-05T06:00:00Z,26.4679,-82.0631,2.09,4.21,1111122 
SCCF RECON,ioos:station:SCCF:11:1,2013-09-05T07:00:00Z,26.4679,-82.0631,2.05,4.06,1111122 
SCCF RECON,ioos:station:SCCF:11:1,2013-09-05T08:00:00Z,26.4679,-82.0631,1.95,4.47,1111122 
SCCF RECON,ioos:station:SCCF:11:1,2013-09-05T09:00:00Z,26.4679,-82.0631,1.84,4.21,1111122 
SCCF RECON,ioos:station:SCCF:11:1,2013-09-05T10:00:00Z,26.4679,-82.0631,1.75,4.11,1111122 
SCCF RECON,ioos:station:SCCF:11:1,2013-09-05T11:00:00Z,26.4679,-82.0631,1.65,3.77,1111122 
SCCF RECON,ioos:station:SCCF:11:1,2013-09-05T12:00:00Z,26.4679,-82.0631,1.58,4.12,1111122 
SCCF RECON,ioos:station:SCCF:11:1,2013-09-05T13:00:00Z,26.4679,-82.0631,1.61,3.94,1111122 
SCCF RECON,ioos:station:SCCF:11:1,2013-09-05T14:00:00Z,26.4679,-82.0631,1.761,4.66,1111122 
SCCF RECON,ioos:station:SCCF:11:1,2013-09-05T15:00:00Z,26.4679,-82.0631,1.95,5.11,1111122 
SCCF RECON,ioos:station:SCCF:11:1,2013-09-05T16:00:00Z,26.4679,-82.0631,2.09,5.04,1111122 
SCCF RECON,ioos:station:SCCF:11:1,2013-09-05T17:00:00Z,26.4679,-82.0631,2.18,3.99,1111122 
SCCF RECON,ioos:station:SCCF:11:1,2013-09-05T18:00:00Z,26.4679,-82.0631,2.23,4.17,1111122 
SCCF RECON,ioos:station:SCCF:11:1,2013-09-05T19:00:00Z,26.4679,-82.0631,2.22,4.52,1111122 
SCCF RECON,ioos:station:SCCF:11:1,2013-09-05T20:00:00Z,26.4679,-82.0631,2.15,5.11,1111122 
SCCF RECON,ioos:station:SCCF:11:1,2013-09-05T21:00:00Z,26.4679,-82.0631,2.0,5.95,1111122 
SCCF RECON,ioos:station:SCCF:11:1,2013-09-05T22:00:00Z,26.4679,-82.0631,1.84,5.69,1111122 
SCCF RECON,ioos:station:SCCF:11:1,2013-09-05T23:00:00Z,26.4679,-82.0631,1.7,5.62,1111122 
SCCF RECON,ioos:station:SCCF:11:1,2013-09-06T00:00:00Z,26.4679,-82.0631,1.61,5.54,1111122 
SCCF RECON,ioos:station:SCCF:11:1,2013-09-06T01:00:00Z,26.4679,-82.0631,1.59,5.15,1111122 
SCCF RECON,ioos:station:SCCF:11:1,2013-09-06T02:00:00Z,26.4679,-82.0631,1.68,5.59,1111122 
SCCF RECON,ioos:station:SCCF:11:1,2013-09-06T03:00:00Z,26.4679,-82.0631,1.81,5.03,1111122 
SCCF RECON,ioos:station:SCCF:11:1,2013-09-06T04:00:00Z,26.4679,-82.0631,1.949,5.07,1111122 
SCCF RECON,ioos:station:SCCF:11:1,2013-09-06T05:00:00Z,26.4679,-82.0631,2.07,4.87,1111122 
SCCF RECON,ioos:station:SCCF:11:1,2013-09-06T06:00:00Z,26.4679,-82.0631,2.15,4.81,1111122 
SCCF RECON,ioos:station:SCCF:11:1,2013-09-06T07:00:00Z,26.4679,-82.0631,2.17,4.35,1111122 
SCCF RECON,ioos:station:SCCF:11:1,2013-09-06T08:00:00Z,26.4679,-82.0631,2.11,4.76,1111122 
SCCF RECON,ioos:station:SCCF:11:1,2013-09-06T09:00:00Z,26.4679,-82.0631,1.96,4.47,1111122 
SCCF RECON,ioos:station:SCCF:11:1,2013-09-06T10:00:00Z,26.4679,-82.0631,1.81,4.38,1111122 
SCCF RECON,ioos:station:SCCF:11:1,2013-09-06T11:00:00Z,26.4679,-82.0631,1.69,4.29,1111122 
SCCF RECON,ioos:station:SCCF:11:1,2013-09-06T12:00:00Z,26.4679,-82.0631,1.6,4.19,1111122 
SCCF RECON,ioos:station:SCCF:11:1,2013-09-06T13:00:00Z,26.4679,-82.0631,1.58,3.98,1111122 
SCCF RECON,ioos:station:SCCF:11:1,2013-09-06T14:00:00Z,26.4679,-82.0631,1.64,4.6,1111122 
SCCF RECON,ioos:station:SCCF:11:1,2013-09-06T15:00:00Z,26.4679,-82.0631,1.77,5.03,1111122 
SCCF RECON,ioos:station:SCCF:11:1,2013-09-06T16:00:00Z,26.4679,-82.0631,1.93,4.85,1111122 
SCCF RECON,ioos:station:SCCF:11:1,2013-09-06T17:00:00Z,26.4679,-82.0631,2.05,4.28,1111122 
SCCF RECON,ioos:station:SCCF:11:1,2013-09-06T18:00:00Z,26.4679,-82.0631,2.119,4.14,1111122 
SCCF RECON,ioos:station:SCCF:11:1,2013-09-06T19:00:00Z,26.4679,-82.0631,2.16,4.26,1111122 
SCCF RECON,ioos:station:SCCF:11:1,2013-09-06T20:00:00Z,26.4679,-82.0631,2.14,4.99,1111122 
SCCF RECON,ioos:station:SCCF:11:1,2013-09-06T21:00:00Z,26.4679,-82.0631,2.04,5.88,1111122 
SCCF RECON,ioos:station:SCCF:11:1,2013-09-06T22:00:00Z,26.4679,-82.0631,1.86,6.35,1111122 
SCCF RECON,ioos:station:SCCF:11:1,2013-09-06T23:00:00Z,26.4679,-82.0631,1.73,6.02,1111122 
SCCF RECON,ioos:station:SCCF:11:1,2013-09-07T00:00:00Z,26.4679,-82.0631,1.64,6.21,1111122 
SCCF RECON,ioos:station:SCCF:11:1,2013-09-07T01:00:00Z,26.4679,-82.0631,1.62,6.14,1111122 
SCCF RECON,ioos:station:SCCF:11:1,2013-09-07T02:00:00Z,26.4679,-82.0631,1.59,5.59,1111122 
SCCF RECON,ioos:station:SCCF:11:1,2013-09-07T03:00:00Z,26.4679,-82.0631,1.62,5.93,1111122 
SCCF RECON,ioos:station:SCCF:11:1,2013-09-07T04:00:00Z,26.4679,-82.0631,1.73,5.7,1111122 
SCCF RECON,ioos:station:SCCF:11:1,2013-09-07T05:00:00Z,26.4679,-82.0631,1.84,5.55,1111122 
SCCF RECON,ioos:station:SCCF:11:1,2013-09-07T06:00:00Z,26.4679,-82.0631,1.96,5.3,1111122 
SCCF RECON,ioos:station:SCCF:11:1,2013-09-07T07:00:00Z,26.4679,-82.0631,2.05,4.87,1111122 
SCCF RECON,ioos:station:SCCF:11:1,2013-09-07T08:00:00Z,26.4679,-82.0631,2.09,4.71,1111122 
SCCF RECON,ioos:station:SCCF:11:1,2013-09-07T09:00:00Z,26.4679,-82.0631,2.02,5.34,1111122 
SCCF RECON,ioos:station:SCCF:11:1,2013-09-07T10:00:00Z,26.4679,-82.0631,1.84,4.7,1111122 
SCCF RECON,ioos:station:SCCF:11:1,2013-09-07T11:00:00Z,26.4679,-82.0631,1.77,5.03,1111122 
SCCF RECON,ioos:station:SCCF:11:1,2013-09-07T12:00:00Z,26.4679,-82.0631,1.64,4.56,1111122 
SCCF RECON,ioos:station:SCCF:11:1,2013-09-07T13:00:00Z,26.4679,-82.0631,1.52,4.1,1111122 
SCCF RECON,ioos:station:SCCF:11:1,2013-09-07T14:00:00Z,26.4679,-82.0631,1.51,5.07,1111122 
SCCF RECON,ioos:station:SCCF:11:1,2013-09-07T15:00:00Z,26.4679,-82.0631,1.62,5.13,1111122 
SCCF RECON,ioos:station:SCCF:11:1,2013-09-07T16:00:00Z,26.4679,-82.0631,1.79,5.57,1111122 
SCCF RECON,ioos:station:SCCF:11:1,2013-09-07T17:00:00Z,26.4679,-82.0631,1.92,5.22,1111122 
SCCF RECON,ioos:station:SCCF:11:1,2013-09-07T18:00:00Z,26.4679,-82.0631,2.0,4.97,1111122 
SCCF RECON,ioos:station:SCCF:11:1,2013-09-07T19:00:00Z,26.4679,-82.0631,2.08,4.98,1111122 
SCCF RECON,ioos:station:SCCF:11:1,2013-09-07T20:00:00Z,26.4679,-82.0631,2.12,5.53,1111122 
SCCF RECON,ioos:station:SCCF:11:1,2013-09-07T21:00:00Z,26.4679,-82.0631,2.09,6.0,1111122 
SCCF RECON,ioos:station:SCCF:11:1,2013-09-07T22:00:00Z,26.4679,-82.0631,1.96,6.71,1111122 
SCCF RECON,ioos:station:SCCF:11:1,2013-09-07T23:00:00Z,26.4679,-82.0631,1.84,6.64,1111122 
SCCF RECON,ioos:station:SCCF:11:1,2013-09-08T00:00:00Z,26.4679,-82.0631,1.71,6.44,1111122 
SCCF RECON,ioos:station:SCCF:11:1,2013-09-08T01:00:00Z,26.4679,-82.0631,1.63,6.31,1111122 
SCCF RECON,ioos:station:SCCF:11:1,2013-09-08T02:00:00Z,26.4679,-82.0631,1.61,5.48,1111122 
SCCF RECON,ioos:station:SCCF:11:1,2013-09-08T03:00:00Z,26.4679,-82.0631,1.643,5.69,1111122 
SCCF RECON,ioos:station:SCCF:11:1,2013-09-08T04:00:00Z,26.4679,-82.0631,1.75,5.81,1111122 
SCCF RECON,ioos:station:SCCF:11:1,2013-09-08T05:00:00Z,26.4679,-82.0631,1.834,5.58,1111122 
SCCF RECON,ioos:station:SCCF:11:1,2013-09-08T06:00:00Z,26.4679,-82.0631,1.96,4.62,1111122 
SCCF RECON,ioos:station:SCCF:11:1,2013-09-08T07:00:00Z,26.4679,-82.0631,2.06,5.0,1111122 
SCCF RECON,ioos:station:SCCF:11:1,2013-09-08T08:00:00Z,26.4679,-82.0631,2.13,4.48,1111122 
SCCF RECON,ioos:station:SCCF:11:1,2013-09-08T09:00:00Z,26.4679,-82.0631,2.11,5.16,1111122 
SCCF RECON,ioos:station:SCCF:11:1,2013-09-08T10:00:00Z,26.4679,-82.0631,1.95,4.9,1111122 
SCCF RECON,ioos:station:SCCF:11:1,2013-09-08T11:00:00Z,26.4679,-82.0631,1.81,4.75,1111122 
SCCF RECON,ioos:station:SCCF:11:1,2013-09-08T12:00:00Z,26.4679,-82.0631,1.68,4.66,1111122 
SCCF RECON,ioos:station:SCCF:11:1,2013-09-08T13:00:00Z,26.4679,-82.0631,1.56,4.29,1111122 
SCCF RECON,ioos:station:SCCF:11:1,2013-09-08T14:00:00Z,26.4679,-82.0631,1.51,4.76,1111122 
SCCF RECON,ioos:station:SCCF:11:1,2013-09-08T15:00:00Z,26.4679,-82.0631,1.54,4.84,1111122 
SCCF RECON,ioos:station:SCCF:11:1,2013-09-08T16:00:00Z,26.4679,-82.0631,1.65,5.43,1111122 
SCCF RECON,ioos:station:SCCF:11:1,2013-09-08T17:00:00Z,26.4679,-82.0631,1.77,5.6,1111122 
SCCF RECON,ioos:station:SCCF:11:1,2013-09-08T18:00:00Z,26.4679,-82.0631,1.89,5.7,1111122 
SCCF RECON,ioos:station:SCCF:11:1,2013-09-08T19:00:00Z,26.4679,-82.0631,1.95,4.87,1111122 
SCCF RECON,ioos:station:SCCF:11:1,2013-09-08T20:00:00Z,26.4679,-82.0631,2.01,4.57,1111122 
SCCF RECON,ioos:station:SCCF:11:1,2013-09-08T21:00:00Z,26.4679,-82.0631,2.05,5.86,1111122 
SCCF RECON,ioos:station:SCCF:11:1,2013-09-08T22:00:00Z,26.4679,-82.0631,2.01,6.1,1111122 
SCCF RECON,ioos:station:SCCF:11:1,2013-09-08T23:00:00Z,26.4679,-82.0631,1.94,6.49,1111122 
SCCF RECON,ioos:station:SCCF:11:1,2013-09-09T00:00:00Z,26.4679,-82.0631,1.83,6.28,1111122 
SCCF RECON,ioos:station:SCCF:11:1,2013-09-09T01:00:00Z,26.4679,-82.0631,1.73,5.94,1111122 
SCCF RECON,ioos:station:SCCF:11:1,2013-09-09T02:00:00Z,26.4679,-82.0631,1.7,5.7,1111122 
SCCF RECON,ioos:station:SCCF:11:1,2013-09-09T03:00:00Z,26.4679,-82.0631,1.7,5.93,1111122 
SCCF RECON,ioos:station:SCCF:11:1,2013-09-09T04:00:00Z,26.4679,-82.0631,1.75,5.64,1111122 
SCCF RECON,ioos:station:SCCF:11:1,2013-09-09T05:00:00Z,26.4679,-82.0631,1.87,5.37,1111122 
SCCF RECON,ioos:station:SCCF:11:1,2013-09-09T06:00:00Z,26.4679,-82.0631,1.97,5.1,1111122 
SCCF RECON,ioos:station:SCCF:11:1,2013-09-09T07:00:00Z,26.4679,-82.0631,2.05,5.05,1111122 
SCCF RECON,ioos:station:SCCF:11:1,2013-09-09T08:00:00Z,26.4679,-82.0631,2.13,4.53,1111122 
SCCF RECON,ioos:station:SCCF:11:1,2013-09-09T09:00:00Z,26.4679,-82.0631,2.16,4.84,1111122 
SCCF RECON,ioos:station:SCCF:11:1,2013-09-09T10:00:00Z,26.4679,-82.0631,2.07,5.07,1111122 
SCCF RECON,ioos:station:SCCF:11:1,2013-09-09T11:00:00Z,26.4679,-82.0631,1.96,4.74,1111122 
SCCF RECON,ioos:station:SCCF:11:1,2013-09-09T12:00:00Z,26.4679,-82.0631,1.82,4.51,1111122 
SCCF RECON,ioos:station:SCCF:11:1,2013-09-09T13:00:00Z,26.4679,-82.0631,1.7,4.29,1111122 
SCCF RECON,ioos:station:SCCF:11:1,2013-09-09T14:00:00Z,26.4679,-82.0631,1.58,4.25,1111122 
SCCF RECON,ioos:station:SCCF:11:1,2013-09-09T15:00:00Z,26.4679,-82.0631,1.52,5.0,1111122 
SCCF RECON,ioos:station:SCCF:11:1,2013-09-09T16:00:00Z,26.4679,-82.0631,1.55,5.22,1111122 
SCCF RECON,ioos:station:SCCF:11:1,2013-09-09T17:00:00Z,26.4679,-82.0631,1.66,5.73,1111122 
SCCF RECON,ioos:station:SCCF:11:1,2013-09-09T18:00:00Z,26.4679,-82.0631,1.77,5.72,1111122 
SCCF RECON,ioos:station:SCCF:11:1,2013-09-09T19:00:00Z,26.4679,-82.0631,1.86,5.65,1111122 
SCCF RECON,ioos:station:SCCF:11:1,2013-09-09T20:00:00Z,26.4679,-82.0631,1.9,4.46,1111122 
SCCF RECON,ioos:station:SCCF:11:1,2013-09-09T21:00:00Z,26.4679,-82.0631,1.957,4.68,1111122 
SCCF RECON,ioos:station:SCCF:11:1,2013-09-09T22:00:00Z,26.4679,-82.0631,1.99,4.57,1111122 
SCCF RECON,ioos:station:SCCF:11:1,2013-09-09T23:00:00Z,26.4679,-82.0631,1.99,5.97,1111122 
SCCF RECON,ioos:station:SCCF:11:1,2013-09-10T00:00:00Z,26.4679,-82.0631,1.91,6.28,1111122 
SCCF RECON,ioos:station:SCCF:11:1,2013-09-10T01:00:00Z,26.4679,-82.0631,1.84,6.65,1111122 
SCCF RECON,ioos:station:SCCF:11:1,2013-09-10T02:00:00Z,26.4679,-82.0631,1.762,6.47,1111122 
SCCF RECON,ioos:station:SCCF:11:1,2013-09-10T03:00:00Z,26.4679,-82.0631,1.73,5.39,1111122 
SCCF RECON,ioos:station:SCCF:11:1,2013-09-10T04:00:00Z,26.4679,-82.0631,1.73,5.64,1111122 
SCCF RECON,ioos:station:SCCF:11:1,2013-09-10T05:00:00Z,26.4679,-82.0631,1.77,5.65,1111122 
SCCF RECON,ioos:station:SCCF:11:1,2013-09-10T06:00:00Z,26.4679,-82.0631,1.88,5.22,1111122 
SCCF RECON,ioos:station:SCCF:11:1,2013-09-10T07:00:00Z,26.4679,-82.0631,1.99,5.42,1111122 
SCCF RECON,ioos:station:SCCF:11:1,2013-09-10T08:00:00Z,26.4679,-82.0631,2.07,5.01,1111122 
SCCF RECON,ioos:station:SCCF:11:1,2013-09-10T09:00:00Z,26.4679,-82.0631,2.13,4.86,1111122 
SCCF RECON,ioos:station:SCCF:11:1,2013-09-10T10:00:00Z,26.4679,-82.0631,2.13,5.08,1111122 
SCCF RECON,ioos:station:SCCF:11:1,2013-09-10T11:00:00Z,26.4679,-82.0631,2.02,4.93,1111122 
SCCF RECON,ioos:station:SCCF:11:1,2013-09-10T12:00:00Z,26.4679,-82.0631,1.91,4.56,1111122 
SCCF RECON,ioos:station:SCCF:11:1,2013-09-10T13:00:00Z,26.4679,-82.0631,1.81,4.65,1111122 
SCCF RECON,ioos:station:SCCF:11:1,2013-09-10T14:00:00Z,26.4679,-82.0631,1.7,4.81,1111122 
SCCF RECON,ioos:station:SCCF:11:1,2013-09-10T15:00:00Z,26.4679,-82.0631,1.59,5.24,1111122 
SCCF RECON,ioos:station:SCCF:11:1,2013-09-10T16:00:00Z,26.4679,-82.0631,1.53,5.23,1111122 
SCCF RECON,ioos:station:SCCF:11:1,2013-09-10T17:00:00Z,26.4679,-82.0631,1.55,5.1,1111122 
SCCF RECON,ioos:station:SCCF:11:1,2013-09-10T18:00:00Z,26.4679,-82.0631,1.63,6.19,1111122 
SCCF RECON,ioos:station:SCCF:11:1,2013-09-10T19:00:00Z,26.4679,-82.0631,1.74,5.97,1111122 
SCCF RECON,ioos:station:SCCF:11:1,2013-09-10T20:00:00Z,26.4679,-82.0631,1.81,5.89,1111122 
SCCF RECON,ioos:station:SCCF:11:1,2013-09-10T21:00:00Z,26.4679,-82.0631,1.87,5.25,1111122 
SCCF RECON,ioos:station:SCCF:11:1,2013-09-10T22:00:00Z,26.4679,-82.0631,1.93,6.02,1111122 
SCCF RECON,ioos:station:SCCF:11:1,2013-09-10T23:00:00Z,26.4679,-82.0631,1.96,5.8,1111122 
SCCF RECON,ioos:station:SCCF:11:1,2013-09-11T00:00:00Z,26.4679,-82.0631,1.96,5.66,1111122 
SCCF RECON,ioos:station:SCCF:11:1,2013-09-11T01:00:00Z,26.4679,-82.0631,1.91,5.89,1111122 
SCCF RECON,ioos:station:SCCF:11:1,2013-09-11T02:00:00Z,26.4679,-82.0631,1.86,5.69,1111122 
SCCF RECON,ioos:station:SCCF:11:1,2013-09-11T03:00:00Z,26.4679,-82.0631,1.83,5.17,1111122 
SCCF RECON,ioos:station:SCCF:11:1,2013-09-11T04:00:00Z,26.4679,-82.0631,1.8,5.06,1111122 
SCCF RECON,ioos:station:SCCF:11:1,2013-09-11T05:00:00Z,26.4679,-82.0631,1.77,5.74,1111122 
SCCF RECON,ioos:station:SCCF:11:1,2013-09-11T06:00:00Z,26.4679,-82.0631,1.822,5.88,1111122 
SCCF RECON,ioos:station:SCCF:11:1,2013-09-11T07:00:00Z,26.4679,-82.0631,1.93,5.37,1111122 
SCCF RECON,ioos:station:SCCF:11:1,2013-09-11T08:00:00Z,26.4679,-82.0631,2.018,5.36,1111122 
SCCF RECON,ioos:station:SCCF:11:1,2013-09-11T09:00:00Z,26.4679,-82.0631,2.08,5.56,1111122 
SCCF RECON,ioos:station:SCCF:11:1,2013-09-11T10:00:00Z,26.4679,-82.0631,2.11,5.3,1111122 
SCCF RECON,ioos:station:SCCF:11:1,2013-09-11T11:00:00Z,26.4679,-82.0631,2.13,4.98,1111122 
SCCF RECON,ioos:station:SCCF:11:1,2013-09-11T12:00:00Z,26.4679,-82.0631,2.07,5.36,1111122 
SCCF RECON,ioos:station:SCCF:11:1,2013-09-11T13:00:00Z,26.4679,-82.0631,1.96,4.87,1111122 
SCCF RECON,ioos:station:SCCF:11:1,2013-09-11T14:00:00Z,26.4679,-82.0631,1.842,5.04,1111122 
SCCF RECON,ioos:station:SCCF:11:1,2013-09-11T15:00:00Z,26.4679,-82.0631,1.73,5.34,1111122 
SCCF RECON,ioos:station:SCCF:11:1,2013-09-11T16:00:00Z,26.4679,-82.0631,1.621,5.15,1111122 
SCCF RECON,ioos:station:SCCF:11:1,2013-09-11T17:00:00Z,26.4679,-82.0631,1.56,5.99,1111122 
SCCF RECON,ioos:station:SCCF:11:1,2013-09-11T18:00:00Z,26.4679,-82.0631,1.55,6.16,1111122 
SCCF RECON,ioos:station:SCCF:11:1,2013-09-11T19:00:00Z,26.4679,-82.0631,1.61,6.26,1111122 
SCCF RECON,ioos:station:SCCF:11:1,2013-09-11T20:00:00Z,26.4679,-82.0631,1.66,6.01,1111122 
SCCF RECON,ioos:station:SCCF:11:1,2013-09-11T21:00:00Z,26.4679,-82.0631,1.73,6.15,1111122 